Regional Weather Roundup
Issued by NWS

Home | Current Version | Previous Version | Graphics & Text | Print | Product List | Glossary On
Versions: 1 2 3 4 5 6 7 8 9 10 11 12 13 14 15 16 17 18 19 20 21 22 23 24 25 26 27 28 29 30 31 32 33 34 35 36 37 38 39 40 41 42 43 44 45 46 47 48 49 50
000
ASUS43 KTOP 050959
RWRKS

WEATHER ROUNDUP FOR KANSAS
NATIONAL WEATHER SERVICE GOODLAND KS
500 AM CDT WED AUG 05 2015

NOTE:  "FAIR" INDICATES FEW OR NO CLOUDS BELOW 12,000 FEET WITH NO
SIGNIFICANT WEATHER AND/OR OBSTRUCTIONS TO VISIBILITY.

KSZ001>006-013>018-027>032-041>047-051100-
NORTHWEST KANSAS

CITY           SKY/WX    TMP DP  RH WIND       PRES   REMARKS
GOODLAND       FOG       57  57 100 NW3       30.04S VSB 1/4
HAYS           CLOUDY    70  59  68 NE14      29.96R
HILL CITY      CLOUDY    67  65  93 NE6       29.97F
RUSSELL        TSTM      66  66 100 VRB3      29.98R FOG
$$

KSZ061>065-074>080-084>089-051100-
SOUTHWEST KANSAS

CITY           SKY/WX    TMP DP  RH WIND       PRES   REMARKS
DODGE CITY     CLEAR     70  68  93 S8        29.93F
ELKHART          N/A     70  64  81 W1          N/A
GARDEN CITY    CLEAR     67  66  97 SW5       29.96S
GREAT BEND     CLOUDY    72  66  83 NE9       29.93R
LIBERAL        PTCLDY    73  66  78 SW9       29.94
$$

KSZ066>073-081>083-090>101-051100-
SOUTHEAST KANSAS

CITY           SKY/WX    TMP DP  RH WIND       PRES   REMARKS
CHANUTE        TSTM      72  70  93 NE6G18    29.92F
COFFEYVILLE    CLOUDY    73  71  93 SE5       29.89F
HUTCHINSON     MOCLDY    70  64  81 NE14G29   29.93R
NEWTON         CLOUDY    72  64  78 NW33G47   29.97R THUNDER
PARSONS        CLOUDY    74  71  91 CALM      29.92S
WICHITA INTL   PTCLDY    73  70  90 S8        29.86F
WICHITA JABRA  PTCLDY    72  70  93 SE10      29.87F
$$

KSZ007>012-019>026-033>040-048>060-102>105-051100-
NORTHEAST KANSAS

CITY           SKY/WX    TMP DP  RH WIND       PRES   REMARKS
CONCORDIA      RAIN      69  68  96 E7        29.93F FOG
EMPORIA        TSTM      70  68  93 E10       29.92F FOG
LAWRENCE       PTCLDY    70  68  93 E3        29.96S FOG
MANHATTAN      LGT RAIN  70  68  93 E6        29.93F
OLATHE IND     MOCLDY    70  69  97 E7        29.97F FOG
OLATHE EXE     CLOUDY    70  69  97 E7        29.97R
SALINA         CLOUDY    71  68  90 E13       29.90F
TOPEKA BILLARD MOCLDY    70  68  93 E6        29.95F
TOPEKA FORBES  CLOUDY    71  67  87 E6        29.95F FOG
$$


USA.gov is the U.S. government's official web portal to all federal, state and local government web resources and services.